CAPE
2336 2061 1462 211 223 66 367 510 428 0 0 0 0 0 0 0 0 0 0 0 0 0 0 0 0 0 0 0 0 0 0 0 0 0 0 1 0 0 3 1 139 275 320 341 381 403 437 430 397 283 191 0 0 0 0 0 0 0 12 48 14 0 0 0 0 0 0 0 0 0 0 0 0 0 0 0 0 0 0 0 0 0 0 0 0
2250 1881 1334 252 273 138 400 457 462 457 381 0 0 0 0 0 0 0 0 0 0 0 0 0 0 0 0 0 0 0 0 0 0 0 0 1 3 19 54 274 298 318 355 352 360 313 313 294 243 225 194 21 0 0 0 0 0 0 0 0 41 42 27 2 0 0 0 0 0 0 0 0 0 0 0 0 0 0 0 0 0 0 0 0 0
2030 1646 1042 386 422 391 413 546 713 712 546 0 0 0 0 0 0 0 0 0 0 0 0 0 0 0 0 0 0 0 0 0 0 0 0 2 26 27 67 78 326 336 304 292 303 328 322 278 243 207 57 0 12 108 124 52 0 0 0 2 43 47 47 20 0 0 0 0 0 0 0 0 0 0 0 0 0 0 0 0 0 0 0 0 0
1852 1447 779 454 497 509 560 708 868 820 627 280 0 0 0 0 0 0 0 0 0 0 0 0 0 0 0 0 0 0 0 0 0 0 0 0 7 22 8 5 8 5 300 278 246 209 183 159 135 0 0 0 129 154 156 108 0 0 0 0 57 0 0 0 0 0 0 0 0 0 0 0 0 0 0 0 0 0 0 0 0 0 0 0 0
1552 1119 579 579 623 663 716 862 940 841 674 502 0 0 0 0 2 0 0 0 0 0 0 0 0 0 0 0 0 0 0 0 0 0 0 3 12 24 22 6 146 368 320 312 291 223 136 0 0 0 0 0 125 122 121 0 0 0 0 0 28 0 0 0 0 0 12 12 0 0 0 0 0 0 0 0 0 0 0 0 0 0 0 0 0
1354 638 430 576 598 683 705 806 867 785 732 576 0 0 0 0 0 18 0 0 0 0 0 0 0 0 0 0 0 0 0 0 0 0 2 16 17 12 13 389 406 367 371 346 288 154 1 0 0 0 0 0 0 88 129 48 0 0 0 0 0 0 0 0 0 1 29 60 28 1 0 0 0 0 0 0 0 0 0 0 0 0 0 0 0
1484 689 613 570 437 489 724 818 881 832 772 585 216 0 0 10 35 2 7 0 0 0 0 0 0 0 0 0 0 0 0 0 0 0 0 1 3 7 62 386 465 480 428 368 333 190 20 0 0 0 0 0 27 92 0 0 0 0 0 0 0 0 0 0 0 21 73 124 44 3 2 0 0 0 0 0 0 0 0 0 0 0 0 0 0
1523 1111 939 971 540 524 790 919 1007 916 792 595 0 3 15 21 28 0 0 0 0 0 0 0 0 0 0 0 0 0 0 0 0 0 0 0 0 2 12 340 426 463 396 370 331 186 16 0 0 0 49 63 0 0 0 0 0 0 0 0 0 30 0 0 0 84 159 155 28 3 2 0 0 0 0 0 0 0 0 0 1 0 0 0 0
1558 1398 1219 1082 932 641 670 957 984 892 774 641 71 7 17 5 0 0 0 0 0 0 0 0 0 0 0 0 0 0 0 0 0 0 0 0 0 1 10 191 339 365 368 364 292 167 0 0 0 0 4 53 4 0 0 0 0 0 168 55 195 207 194 214 235 247 211 100 45 6 1 0 0 0 0 0 0 0 0 0 4 1 0 0 0
1800 1605 1529 1589 1354 854 692 830 924 868 806 721 542 444 167 166 0 0 0 0 0 0 0 0 0 0 0 0 0 0 0 0 0 0 0 1 0 3 26 209 286 337 352 344 288 205 123 122 15 87 68 38 11 0 0 0 261 296 288 256 263 302 298 274 275 252 202 142 92 10 0 0 0 0 0 0 0 0 0 0 2 1 2 2 0
1810 1787 1722 1720 1591 874 612 752 832 861 881 686 642 524 150 0 447 0 0 0 0 0 0 0 0 0 0 0 0 0 0 0 0 0 0 10 37 6 20 192 258 284 277 264 253 223 173 138 0 9 47 136 312 235 231 325 369 342 309 289 288 316 345 346 334 278 241 189 137 18 0 0 0 0 0 0 0 0 0 0 4 7 13 12 4
1874 1905 1869 1850 1719 1134 535 725 840 886 828 808 593 606 456 472 456 208 0 0 0 0 0 0 0 0 0 0 0 46 10 0 0 0 0 0 60 198 160 197 224 216 204 215 248 263 265 253 119 0 0 15 41 31 102 294 312 298 284 283 295 296 353 404 404 373 312 152 86 11 0 0 0 0 0 0 2 2 0 3 4 10 16 14 9
1953 1989 1992 1883 1573 855 493 635 846 854 714 594 510 357 502 516 439 180 0 0 0 0 0 0 0 0 0 0 139 118 63 24 0 0 0 0 0 33 166 231 254 268 272 267 279 294 306 286 133 0 0 119 328 303 359 392 346 232 0 0 0 294 415 478 565 424 276 230 159 38 0 0 0 0 2 10 18 20 13 5 2 2 6 9 3
1914 1922 1789 1318 779 478 508 662 763 669 569 367 314 346 436 438 410 383 0 0 0 0 0 0 0 0 0 2 201 202 151 92 50 0 0 0 0 0 8 27 181 265 262 228 215 244 251 188 19 2 1 119 416 501 511 483 447 331 0 120 332 447 537 539 498 418 294 183 51 1 0 0 0 6 15 20 28 33 26 12 3 3 4 6 0
1995 2029 1625 980 739 630 562 741 359 335 261 400 416 324 324 400 456 463 0 0 0 0 0 0 0 88 180 214 231 236 211 194 144 38 0 0 0 0 0 0 1 0 0 26 127 180 201 144 51 63 291 516 598 614 610 625 548 349 78 354 507 563 412 156 26 0 0 6 0 0 0 0 0 28 28 26 30 32 36 23 11 6 12 3 3
2158 2049 1750 1110 1012 852 781 280 237 292 396 413 404 397 430 487 569 597 398 104 1 0 0 0 0 179 205 231 260 298 315 261 152 61 39 0 0 0 0 0 0 0 0 0 23 135 164 140 146 370 458 456 496 562 626 579 367 0 312 513 486 0 0 0 0 0 29 66 71 52 1 0 36 36 15 10 8 8 28 21 3 0 4 6 7
2063 1405 1487 1132 1137 1270 685 344 354 368 482 474 388 358 413 588 741 693 498 412 376 368 330 5 9 6 100 257 320 397 409 325 174 82 56 49 5 0 0 17 20 0 0 0 0 48 0 271 389 338 289 310 421 510 255 0 0 0 412 129 0 0 0 0 0 0 90 83 22 8 9 2 45 52 35 14 26 21 31 13 0 1 5 18 15
1742 1098 872 965 943 952 812 151 446 442 409 320 172 363 540 710 902 785 558 423 363 279 19 95 54 15 120 348 423 490 523 484 311 182 150 134 97 39 0 5 2 0 0 19 22 174 308 315 485 396 414 438 41 0 0 0 0 58 0 0 0 0 0 0 0 14 6 1 1 1 0 44 50 34 10 0 0 3 20 16 3 1 17 30 18
1390 1037 998 1030 905 839 1009 699 510 529 470 327 285 460 730 972 1015 703 479 318 406 390 228 89 37 92 124 466 527 561 642 561 199 144 212 232 184 165 49 0 0 0 27 2 138 165 0 86 134 85 0 0 0 0 0 0 0 0 0 0 0 0 0 0 1 2 1 1 0 1 0 24 17 14 56 1 0 1 18 22 10 16 30 22 23
1298 1137 746 838 854 648 1122 882 762 608 522 379 313 469 732 854 676 410 480 592 665 743 732 574 457 482 566 579 615 638 685 684 458 130 135 229 169 128 113 81 0 0 0 0 1 0 145 160 126 0 0 0 0 0 0 0 0 0 0 0 0 0 0 0 0 0 1 2 1 1 2 1 0 0 0 0 2 18 17 2 2 7 28 35 25
1110 1118 717 492 813 873 983 881 851 780 594 332 120 407 458 495 554 677 810 913 962 1050 1111 1052 808 616 680 689 685 714 761 858 828 500 92 126 167 105 131 113 141 109 72 111 28 182 242 245 75 0 0 0 0 0 0 0 0 0 0 0 0 0 0 0 0 0 2 6 7 4 2 3 2 0 0 0 0 1 2 0 1 4 19 33 11
990 916 738 450 677 787 774 780 833 779 557 305 546 626 604 668 816 1005 1114 1166 1230 1280 1295 1170 971 758 750 785 815 850 897 909 883 618 82 0 0 0 0 120 127 90 52 0 111 255 276 1 0 0 0 0 0 0 0 0 0 0 0 0 0 0 0 0 0 1 0 2 4 4 3 2 2 0 0 0 0 0 0 0 0 0 0 24 24
704 596 621 713 457 517 572 622 704 716 761 840 877 912 888 1014 1158 1259 1361 1412 1429 1360 1162 950 841 728 683 819 900 942 979 888 691 111 0 0 0 0 0 249 210 73 36 0 209 251 195 46 0 0 0 0 0 0 0 0 0 0 0 0 0 0 0 0 1 0 0 2 5 4 3 3 3 2 2 1 0 0 0 0 0 1 22 34 16
394 254 319 0 456 551 621 968 1056 1043 1050 1126 1173 1228 1273 1383 1474 1502 1573 1557 1380 1169 1028 855 720 639 626 744 776 745 715 655 528 364 0 0 0 0 0 239 0 0 0 73 188 182 195 0 0 0 0 0 0 0 0 0 0 0 227 30 0 0 0 0 0 0 3 2 5 5 4 5 6 2 2 2 2 1 1 0 0 1 1 11 3
583 504 530 495 404 444 848 982 1206 1220 1298 1362 1425 1484 1561 1606 1665 1695 1631 1400 1074 966 896 745 605 575 610 646 686 655 630 598 530 376 0 0 0 0 0 86 53 231 233 203 145 206 93 0 0 0 0 0 0 0 0 41 270 268 143 60 6 0 0 0 0 0 0 2 3 5 5 4 4 5 4 2 5 2 0 0 0 0 1 2 0
723 695 621 583 498 595 847 1129 1255 1381 1476 1557 1642 1710 1799 1811 1675 1550 1402 1313 1019 847 778 630 570 586 642 700 700 662 607 598 554 391 0 2 0 72 227 97 86 0 177 166 206 216 165 2 5 10 26 8 0 0 312 310 282 256 76 1 0 0 0 0 0 0 0 1 2 3 2 1 0 0 2 4 9 8 1 2 2 0 0 0 1
936 788 719 528 693 971 1170 1263 1466 1678 1742 1850 2024 1960 1734 1584 1557 1547 1214 920 816 741 640 579 570 594 614 590 556 547 590 541 414 297 314 360 381 375 246 32 241 37 36 242 258 243 37 20 34 46 28 203 405 401 316 286 280 186 0 0 0 0 0 0 0 0 1 0 1 1 0 0 0 1 0 1 2 7 2 7 3 0 0 0 1
831 589 390 573 756 1021 1385 1645 1793 1918 2019 1967 1881 1704 1646 1653 1584 1304 948 785 684 586 526 521 522 502 474 476 498 492 470 439 413 385 358 352 393 458 473 267 0 0 0 0 267 298 59 0 2 296 384 379 389 345 181 120 0 70 26 0 0 0 0 0 0 0 0 0 0 0 0 0 0 0 0 0 0 4 2 4 4 1 0 0 0
600 780 948 1098 1294 1548 1875 1976 1907 1740 1663 1662 1703 1704 1709 1554 1288 1007 763 621 534 477 483 464 472 471 439 390 357 372 388 364 358 330 367 409 508 620 546 407 334 253 122 193 269 259 0 0 0 0 11 0 0 88 116 93 32 11 6 0 0 0 0 0 0 0 0 0 0 0 0 0 0 0 0 0 0 3 1 1 0 2 0 0 0
936 1361 1587 1747 1907 2033 2007 1848 1611 1410 1371 1485 1650 1522 1378 1206 1043 787 677 501 450 444 442 430 392 357 342 339 138 128 286 282 262 299 356 444 554 553 511 436 368 261 248 266 261 0 0 0 0 0 0 0 4 16 31 10 6 5 0 0 0 0 0 0 0 0 0 0 0 0 0 0 0 0 0 0 0 1 1 15 12 1 2 0 0
472 1002 1473 1556 1833 1856 1746 1668 1464 1453 1550 1639 1478 1237 1051 805 672 577 457 397 412 414 393 366 343 0 0 0 0 0 0 0 0 163 279 371 435 448 356 304 279 204 131 0 0 0 0 0 0 0 0 0 7 8 9 10 6 0 0 0 0 0 0 0 0 0 0 0 0 0 0 0 0 0 0 0 0 0 0 7 48 2 19 6 0
751 1111 1657 1750 1843 1741 1636 1573 1388 1431 1428 1311 1147 908 619 452 360 335 331 361 334 287 94 0 0 0 0 0 0 0 0 0 0 0 0 24 85 90 208 200 153 8 0 0 34 0 0 0 0 0 0 0 0 0 2 1 2 2 0 0 0 0 0 0 0 0 0 0 0 0 0 0 0 0 0 0 0 2 4 1 36 18 30 7 0
118 700 1468 1998 1924 1779 1654 1526 1484 1385 1270 1035 756 500 413 352 357 348 231 276 283 172 0 0 0 0 0 0 0 0 0 0 0 0 0 0 0 0 0 0 0 0 0 0 0 0 0 0 0 0 0 0 0 0 0 0 0 0 0 0 0 0 0 0 0 0 0 0 0 0 0 0 0 0 0 0 0 0 1 2 18 39 44 7 0
1 4 530 858 942 1104 1316 1318 1210 1061 834 610 447 417 385 373 380 339 401 372 242 0 0 0 0 0 0 0 0 0 0 0 0 0 0 0 0 0 0 0 0 0 0 0 0 0 0 0 0 0 0 0 4 4 1 0 0 0 0 0 0 0 0 0 0 0 0 0 0 0 0 0 0 0 0 0 0 0 3 6 16 25 43 11 0
1 1289 1472 827 701 594 632 614 548 524 507 485 501 473 446 454 413 444 453 347 98 0 0 0 0 0 0 0 0 0 0 0 0 0 0 0 0 0 0 0 0 0 0 0 0 0 0 0 0 0 0 0 0 0 0 0 0 0 0 0 0 0 0 0 0 0 0 0 0 0 0 0 0 0 0 0 0 0 0 3 10 23 38 17 3
834 1110 781 592 307 446 554 641 603 592 601 622 588 551 561 509 478 456 370 263 73 77 0 0 36 0 0 0 0 0 0 0 0 0 0 0 0 0 0 0 0 0 0 0 0 0 0 0 0 0 0 0 0 0 0 0 0 0 0 0 0 0 0 0 0 0 0 0 0 0 0 0 0 0 0 0 0 0 0 1 6 21 32 25 1
606 445 330 110 310 407 525 607 645 680 679 670 609 596 531 483 421 340 296 277 279 220 129 62 3 2 1 1 0 0 0 0 0 0 0 0 0 0 0 0 0 0 0 0 0 0 1 0 1 0 0 0 0 0 0 0 0 0 0 0 0 0 0 0 0 0 0 0 0 0 0 0 0 0 0 0 0 0 0 0 6 13 25 37 26
242 127 43 267 262 327 330 363 384 359 347 336 363 368 376 333 321 294 267 147 74 77 82 56 1 3 7 2 0 0 0 0 0 0 0 0 0 0 0 0 0 0 0 0 0 1 1 0 0 0 0 0 0 0 0 1 0 0 0 0 0 0 0 0 0 0 0 0 0 0 0 0 0 0 0 0 0 0 0 0 2 10 20 26 26
144 150 264 154 317 317 326 337 366 384 357 364 342 331 329 306 256 167 121 101 74 80 78 68 36 16 9 6 2 2 0 0 0 0 0 0 0 0 0 0 0 0 0 0 0 0 0 0 0 0 0 0 0 0 0 2 0 1 0 0 0 0 0 0 0 0 0 0 0 0 0 0 0 0 0 0 0 0 0 0 0 1 9 19 24
170 248 264 264 218 129 77 243 194 184 134 233 275 265 234 118 61 54 108 147 118 114 135 93 53 35 29 20 14 11 11 8 4 1 0 0 0 0 0 0 0 0 0 0 0 0 0 0 0 0 0 0 0 0 1 0 0 0 0 0 0 0 0 0 0 0 0 0 0 0 0 0 0 0 0 0 0 0 0 0 0 0 2 14 23
0 32 182 214 77 216 304 217 125 7 0 11 0 25 14 38 15 1 107 128 130 112 56 48 41 6 3 5 10 13 13 12 10 2 0 0 0 0 0 0 0 0 0 0 0 0 0 0 0 0 0 0 1 0 4 4 0 0 0 0 0 0 0 0 0 0 0 0 0 0 0 0 0 0 0 0 0 0 0 0 0 0 0 4 13
0 0 218 255 275 262 200 55 15 128 14 16 0 0 10 7 0 0 0 0 38 15 1 0 4 4 4 6 9 14 12 4 0 0 0 0 0 0 0 0 0 0 0 0 0 0 0 0 0 0 0 1 4 5 0 0 0 0 0 0 0 0 0 0 0 0 0 0 0 0 0 0 0 0 0 0 0 0 0 0 0 0 0 0 0
139 278 296 269 158 47 44 9 0 0 0 0 0 34 16 0 0 0 0 0 0 0 0 0 2 1 2 3 9 1 0 0 0 0 0 0 0 0 0 0 0 0 0 0 0 0 0 0 0 0 0 0 0 0 0 0 0 0 0 0 0 0 0 0 0 0 0 0 0 0 0 0 0 0 0 0 0 0 0 0 0 0 0 0 0
216 81 58 71 51 67 19 0 0 0 0 21 19 0 0 0 0 0 0 0 1 0 0 0 0 0 0 0 0 0 0 0 0 0 0 0 0 0 0 0 0 0 0 0 0 0 0 0 0 0 0 0 0 0 0 0 0 0 0 0 0 0 0 0 0 0 0 0 0 0 0 0 0 0 0 0 0 0 0 0 0 0 0 0 0
0 3 8 3 1 0 0 0 0 0 12 30 0 0 30 0 0 0 0 0 0 0 0 0 0 0 0 0 0 0 0 0 0 0 0 0 0 0 0 0 0 0 0 0 0 0 0 0 0 0 0 0 0 0 0 0 0 0 0 0 0 0 0 0 0 0 0 0 0 0 0 0 0 0 0 0 0 0 0 0 0 0 0 0 0
0 0 0 0 0 0 0 0 4 0 0 0 0 0 0 0 0 0 0 0 0 0 0 0 0 0 0 0 0 0 0 0 0 0 0 0 0 0 0 0 0 0 0 0 0 0 0 0 0 0 0 0 0 0 0 0 0 0 0 0 0 0 0 0 0 0 0 0 0 0 0 0 0 0 0 0 0 0 0 0 0 0 0 0 0
0 0 0 0 0 0 0 0 0 0 0 0 0 0 0 0 0 0 0 0 0 0 0 0 0 0 0 0 0 0 0 0 0 0 0 0 0 0 0 0 0 0 0 0 0 0 0 0 0 0 0 0 0 0 0 0 0 0 0 0 0 0 0 0 0 0 0 0 0 0 0 0 0 0 0 0 0 0 0 0 0 0 0 0 0
0 0 0 0 0 0 0 0 1 19 0 0 0 0 0 0 0 0 0 0 0 0 0 0 0 0 0 0 0 0 0 0 0 0 0 0 0 0 0 0 0 0 0 0 0 0 0 0 0 0 0 0 0 0 0 0 0 0 0 0 0 0 0 0 0 0 0 0 0 0 0 0 0 0 0 0 0 0 0 0 0 0 0 0 0
0 0 0 0 0 0 0 1 0 0 0 0 0 11 15 9 0 0 0 0 0 0 0 0 0 0 0 0 0 0 0 0 0 0 0 0 0 0 0 0 0 0 0 0 0 0 0 0 0 0 0 0 0 0 0 0 0 0 0 0 0 0 0 0 0 0 0 0 0 0 0 0 0 0 0 0 0 0 0 0 0 0 0 0 0
0 0 0 0 17 34 30 26 6 4 15 19 15 7 4 0 0 0 0 0 0 0 0 0 0 0 0 0 0 0 0 0 0 0 0 0 0 0 0 0 0 0 0 0 0 0 0 0 0 0 0 0 0 0 0 0 0 0 0 0 0 0 0 0 0 0 0 0 0 0 0 0 0 0 0 0 0 0 0 0 0 0 0 0 0
0 0 0 0 0 0 0 0 0 20 24 28 30 30 28 23 20 15 1 0 0 1 1 0 0 0 0 0 0 0 0 0 0 0 0 0 0 0 0 0 0 0 0 0 0 0 0 0 0 0 0 0 0 0 0 0 0 0 0 0 0 0 0 0 0 0 0 0 0 0 0 0 0 0 0 0 0 0 0 0 0 0 0 0 0
Wind_Speed
30 30 30 30 32 nan 32 31 30 nan nan nan nan nan nan nan nan nan nan nan nan nan nan nan nan nan nan nan nan nan nan nan nan nan nan nan nan nan nan nan 38 35 35 34 36 37 37 37 37 37 38 nan nan nan nan nan nan nan nan nan nan nan nan nan nan nan nan nan nan nan nan nan nan nan nan nan nan nan nan nan nan nan nan nan nan
29 30 30 31 33 33 34 32 31 31 31 nan nan nan nan nan nan nan nan nan nan nan nan nan nan nan nan nan nan nan nan nan nan nan nan nan nan nan nan 37 37 36 36 36 35 36 36 37 36 36 37 nan nan nan nan nan nan nan nan nan nan nan nan nan nan nan nan nan nan nan nan nan nan nan nan nan nan nan nan nan nan nan nan nan nan
32 32 31 30 31 34 34 32 32 32 32 nan nan nan nan nan nan nan nan nan nan nan nan nan nan nan nan nan nan nan nan nan nan nan nan nan nan nan nan nan 38 37 37 36 36 35 36 37 36 36 nan nan nan 36 37 nan nan nan nan nan nan nan nan nan nan nan nan nan nan nan nan nan nan nan nan nan nan nan nan nan nan nan nan nan nan
34 33 31 30 31 33 33 33 34 33 32 32 nan nan nan nan nan nan nan nan nan nan nan nan nan nan nan nan nan nan nan nan nan nan nan nan nan nan nan nan nan nan 38 37 36 37 37 36 35 nan nan nan 34 35 36 37 nan nan nan nan nan nan nan nan nan nan nan nan nan nan nan nan nan nan nan nan nan nan nan nan nan nan nan nan nan
35 34 32 33 32 32 33 34 34 34 33 33 nan nan nan nan nan nan nan nan nan nan nan nan nan nan nan nan nan nan nan nan nan nan nan nan nan nan nan nan 39 38 38 36 36 37 37 nan nan nan nan nan 32 33 34 nan nan nan nan nan nan nan nan nan nan nan nan nan nan nan nan nan nan nan nan nan nan nan nan nan nan nan nan nan nan
36 37 33 33 31 32 34 35 35 35 35 34 nan nan nan nan nan nan nan nan nan nan nan nan nan nan nan nan nan nan nan nan nan nan nan nan nan nan nan 41 40 38 36 35 35 37 nan nan nan nan nan nan nan nan 34 nan nan nan nan nan nan nan nan nan nan nan nan nan nan nan nan nan nan nan nan nan nan nan nan nan nan nan nan nan nan
39 40 35 32 32 34 35 35 35 36 36 35 34 nan nan nan nan nan nan nan nan nan nan nan nan nan nan nan nan nan nan nan nan nan nan nan nan nan nan 40 39 38 35 34 35 36 nan nan nan nan nan nan nan nan nan nan nan nan nan nan nan nan nan nan nan nan nan 27 nan nan nan nan nan nan nan nan nan nan nan nan nan nan nan nan nan
40 39 37 35 35 35 36 36 36 37 36 36 nan nan nan nan nan nan nan nan nan nan nan nan nan nan nan nan nan nan nan nan nan nan nan nan nan nan nan 39 37 35 34 33 34 34 nan nan nan nan nan nan nan nan nan nan nan nan nan nan nan nan nan nan nan nan 29 28 nan nan nan nan nan nan nan nan nan nan nan nan nan nan nan nan nan
42 41 39 37 36 36 35 35 37 38 37 37 nan nan nan nan nan nan nan nan nan nan nan nan nan nan nan nan nan nan nan nan nan nan nan nan nan nan nan 37 35 32 32 31 32 32 nan nan nan nan nan nan nan nan nan nan nan nan 39 nan 39 38 35 33 32 30 29 nan nan nan nan nan nan nan nan nan nan nan nan nan nan nan nan nan nan
44 43 40 39 39 39 36 37 38 39 37 36 35 33 32 30 nan nan nan nan nan nan nan nan nan nan nan nan nan nan nan nan nan nan nan nan nan nan nan 35 32 30 30 30 29 30 32 35 nan nan nan nan nan nan nan nan 40 41 39 40 39 37 35 34 32 31 29 26 nan nan nan nan nan nan nan nan nan nan nan nan nan nan nan nan nan
45 45 42 41 44 42 37 37 39 38 35 35 36 33 31 nan 33 nan nan nan nan nan nan nan nan nan nan nan nan nan nan nan nan nan nan nan nan nan nan 37 31 29 29 29 28 29 32 35 nan nan nan 35 36 37 38 38 38 38 39 38 37 38 36 33 33 32 30 28 29 nan nan nan nan nan nan nan nan nan nan nan nan nan nan nan nan
46 44 43 47 51 43 36 39 39 36 34 33 35 32 33 34 34 35 nan nan nan nan nan nan nan nan nan nan nan nan nan nan nan nan nan nan nan 45 45 40 33 29 28 28 28 29 31 33 37 nan nan nan nan nan 39 37 37 36 36 35 34 34 36 36 33 32 30 29 nan nan nan nan nan nan nan nan nan nan nan nan nan nan nan nan nan
46 46 48 52 51 43 37 38 38 32 31 31 32 34 32 32 34 36 nan nan nan nan nan nan nan nan nan nan 35 38 nan nan nan nan nan nan nan nan 42 40 34 28 26 26 27 30 32 33 35 nan nan 36 37 40 41 39 37 37 nan nan nan 31 33 34 33 33 32 31 30 nan nan nan nan nan nan nan nan nan nan nan nan nan nan nan nan
49 49 49 52 50 42 33 34 34 29 30 31 34 33 31 31 34 36 nan nan nan nan nan nan nan nan nan nan 38 39 40 nan nan nan nan nan nan nan nan nan 32 27 26 27 29 32 35 36 nan nan nan 38 39 40 41 40 39 40 nan 37 35 33 34 34 31 31 33 33 nan nan nan nan nan nan nan nan nan nan nan nan nan nan nan nan nan
59 51 47 48 47 39 34 37 35 31 31 33 33 32 31 32 35 37 nan nan nan nan nan nan nan nan 42 40 40 40 42 43 41 nan nan nan nan nan nan nan nan nan nan nan 33 34 38 40 nan nan 36 38 40 40 40 39 40 39 nan 36 34 34 35 35 nan nan nan nan nan nan nan nan nan nan nan nan nan nan nan nan nan nan nan nan nan
58 51 45 44 44 42 42 41 36 33 32 32 31 30 31 33 34 38 40 42 nan nan nan nan nan 44 43 41 42 43 45 46 45 nan nan nan nan nan nan nan nan nan nan nan nan 38 43 44 40 38 38 39 39 37 37 38 39 nan 37 35 33 nan nan nan nan nan nan nan nan nan nan nan nan nan nan nan nan nan nan nan nan nan nan nan nan
63 52 41 38 40 41 40 42 38 32 31 31 30 31 33 33 35 40 40 41 43 43 44 nan nan nan 44 44 46 47 48 50 50 nan nan nan nan nan nan nan nan nan nan nan nan nan nan 46 41 39 39 41 40 39 37 nan nan nan 38 35 nan nan nan nan nan nan nan nan nan nan nan nan nan nan nan nan nan nan nan nan nan nan nan nan nan
59 47 40 40 39 39 39 38 35 31 32 32 33 34 35 36 38 40 40 42 42 42 nan nan nan nan 45 46 48 50 50 50 51 50 49 49 nan nan nan nan nan nan nan nan nan 46 46 41 38 39 39 42 nan nan nan nan nan nan nan nan nan nan nan nan nan nan nan nan nan nan nan nan nan nan nan nan nan nan nan nan nan nan nan nan nan
47 41 42 48 49 48 47 47 41 34 32 33 35 36 37 37 40 41 39 40 41 42 42 nan nan nan 45 47 48 50 51 50 50 50 50 51 54 53 nan nan nan nan nan nan 45 45 nan nan 35 nan nan nan nan nan nan nan nan nan nan nan nan nan nan nan nan nan nan nan nan nan nan nan nan nan nan nan nan nan nan nan nan nan nan nan nan
46 43 42 42 41 43 45 47 42 35 29 30 34 36 38 41 41 41 39 41 41 40 42 43 42 42 45 47 50 52 52 51 50 50 52 53 56 54 54 nan nan nan nan nan nan nan 39 37 35 nan nan nan nan nan nan nan nan nan nan nan nan nan nan nan nan nan nan nan nan nan nan nan nan nan nan nan nan nan nan nan nan nan nan nan nan
46 43 42 40 36 36 38 36 30 24 24 29 34 37 41 41 42 41 39 40 40 39 40 42 43 44 48 50 52 52 53 52 51 52 nan 54 55 56 56 55 52 48 nan 48 nan 39 37 37 nan nan nan nan nan nan nan nan nan nan nan nan nan nan nan nan nan nan nan nan nan nan nan nan nan nan nan nan nan nan nan nan nan nan nan nan nan
44 44 45 46 45 39 31 23 17 18 24 30 34 36 39 42 40 38 38 40 40 39 40 43 46 47 50 52 52 52 52 52 51 50 nan nan nan nan nan 54 54 nan nan nan 41 39 39 nan nan nan nan nan nan nan nan nan nan nan nan nan nan nan nan nan nan nan nan nan nan nan nan nan nan nan nan nan nan nan nan nan nan nan nan nan nan
44 43 43 46 45 33 21 14 15 21 25 29 34 36 38 39 38 38 39 39 39 38 41 46 48 48 49 50 51 51 51 50 51 50 nan nan nan nan nan 54 54 nan nan nan 41 41 40 nan nan nan nan nan nan nan nan nan nan nan nan nan nan nan nan nan nan nan nan nan nan nan nan nan nan nan nan nan nan nan nan nan nan nan nan nan nan
44 40 36 nan 44 30 19 17 25 30 32 36 37 37 37 38 38 38 39 39 38 39 42 46 47 46 46 48 50 50 50 50 48 48 nan nan nan nan nan 53 nan nan nan nan 41 41 37 nan nan nan nan nan nan nan nan nan nan nan 33 nan nan nan nan nan nan nan nan nan nan nan nan nan nan nan nan nan nan nan nan nan nan nan nan nan nan
43 40 35 36 38 32 28 29 33 37 40 43 39 35 37 39 38 38 38 38 40 43 44 47 48 48 49 48 49 50 49 48 47 48 nan nan nan nan nan nan nan 39 42 42 42 39 nan nan nan nan nan nan nan nan nan nan 35 33 30 nan nan nan nan nan nan nan nan nan nan nan nan nan nan nan nan nan nan nan nan nan nan nan nan nan nan
42 40 35 37 37 33 31 35 39 40 44 42 39 39 41 40 37 37 38 39 44 46 46 50 51 51 49 48 47 48 48 48 48 48 nan nan nan nan 52 nan nan nan 43 42 41 38 35 nan nan nan nan nan nan nan 41 38 37 33 nan nan nan nan nan nan nan nan nan nan nan nan nan nan nan nan nan nan nan nan nan nan nan nan nan nan nan
43 41 35 34 36 36 40 43 46 47 48 46 44 43 39 36 35 36 39 43 47 48 49 51 50 49 47 47 46 46 46 47 48 48 48 48 46 46 43 nan 38 nan nan 42 42 40 nan nan nan nan nan 42 44 44 41 38 36 35 nan nan nan nan nan nan nan nan nan nan nan nan nan nan nan nan nan nan nan nan nan nan nan nan nan nan nan
42 36 32 34 39 44 47 49 49 48 46 45 43 38 35 34 37 40 44 48 50 49 49 49 48 48 47 46 46 46 46 47 47 45 44 45 44 41 40 38 nan nan nan nan 39 38 nan nan nan 41 42 43 42 39 36 34 nan nan nan nan nan nan nan nan nan nan nan nan nan nan nan nan nan nan nan nan nan nan nan nan nan nan nan nan nan
44 39 39 41 44 47 48 47 47 44 41 39 36 36 37 41 44 47 51 49 48 46 46 45 46 48 48 47 47 45 45 45 44 44 42 42 42 41 40 39 40 40 41 39 37 37 nan nan nan nan nan nan nan nan 33 nan nan nan nan nan nan nan nan nan nan nan nan nan nan nan nan nan nan nan nan nan nan nan nan nan nan nan nan nan nan
46 41 40 42 46 47 46 44 42 40 41 41 43 45 51 53 50 47 47 48 47 43 43 44 46 46 46 45 48 46 45 43 42 44 46 46 43 43 42 42 41 41 40 37 37 nan nan nan nan nan nan nan nan nan nan nan nan nan nan nan nan nan nan nan nan nan nan nan nan nan nan nan nan nan nan nan nan nan nan nan nan nan nan nan nan
46 39 37 42 45 49 47 42 40 43 46 50 52 53 51 49 48 47 46 44 42 42 42 40 40 nan nan nan nan nan nan nan nan 46 44 43 43 42 41 40 40 40 39 nan nan nan nan nan nan nan nan nan nan nan nan nan nan nan nan nan nan nan nan nan nan nan nan nan nan nan nan nan nan nan nan nan nan nan nan nan nan nan nan nan nan
39 37 37 39 43 44 44 44 48 51 53 55 56 56 54 50 46 44 45 46 45 45 nan nan nan nan nan nan nan nan nan nan nan nan nan nan nan nan 42 40 39 nan nan nan nan nan nan nan nan nan nan nan nan nan nan nan nan nan nan nan nan nan nan nan nan nan nan nan nan nan nan nan nan nan nan nan nan nan nan nan nan nan nan nan nan
31 34 39 41 44 47 49 51 53 55 57 57 56 55 53 50 49 47 46 47 50 48 nan nan nan nan nan nan nan nan nan nan nan nan nan nan nan nan nan nan nan nan nan nan nan nan nan nan nan nan nan nan nan nan nan nan nan nan nan nan nan nan nan nan nan nan nan nan nan nan nan nan nan nan nan nan nan nan nan nan nan nan nan nan nan
nan nan 46 48 51 52 53 52 53 52 54 55 54 53 50 49 48 48 49 47 46 nan nan nan nan nan nan nan nan nan nan nan nan nan nan nan nan nan nan nan nan nan nan nan nan nan nan nan nan nan nan nan nan nan nan nan nan nan nan nan nan nan nan nan nan nan nan nan nan nan nan nan nan nan nan nan nan nan nan nan nan nan nan nan nan
nan 49 54 53 52 51 49 50 50 51 52 52 51 49 48 47 46 46 47 48 nan nan nan nan nan nan nan nan nan nan nan nan nan nan nan nan nan nan nan nan nan nan nan nan nan nan nan nan nan nan nan nan nan nan nan nan nan nan nan nan nan nan nan nan nan nan nan nan nan nan nan nan nan nan nan nan nan nan nan nan nan nan nan nan nan
50 52 52 52 50 49 49 50 51 51 50 47 45 44 44 44 44 45 46 47 nan nan nan nan nan nan nan nan nan nan nan nan nan nan nan nan nan nan nan nan nan nan nan nan nan nan nan nan nan nan nan nan nan nan nan nan nan nan nan nan nan nan nan nan nan nan nan nan nan nan nan nan nan nan nan nan nan nan nan nan nan nan nan nan nan
51 52 52 51 50 50 50 50 49 49 45 41 41 42 44 45 47 48 49 48 48 48 49 nan nan nan nan nan nan nan nan nan nan nan nan nan nan nan nan nan nan nan nan nan nan nan nan nan nan nan nan nan nan nan nan nan nan nan nan nan nan nan nan nan nan nan nan nan nan nan nan nan nan nan nan nan nan nan nan nan nan nan nan nan nan
52 53 nan 51 49 48 49 48 48 47 43 41 44 49 50 51 51 51 50 49 nan nan nan nan nan nan nan nan nan nan nan nan nan nan nan nan nan nan nan nan nan nan nan nan nan nan nan nan nan nan nan nan nan nan nan nan nan nan nan nan nan nan nan nan nan nan nan nan nan nan nan nan nan nan nan nan nan nan nan nan nan nan nan nan nan
52 54 56 54 50 47 46 47 47 47 46 48 52 56 56 54 53 52 52 51 nan nan nan nan nan nan nan nan nan nan nan nan nan nan nan nan nan nan nan nan nan nan nan nan nan nan nan nan nan nan nan nan nan nan nan nan nan nan nan nan nan nan nan nan nan nan nan nan nan nan nan nan nan nan nan nan nan nan nan nan nan nan nan nan nan
50 50 51 53 49 46 nan 47 49 50 51 54 55 55 54 54 nan nan 52 52 51 48 45 nan nan nan nan nan nan nan nan nan nan nan nan nan nan nan nan nan nan nan nan nan nan nan nan nan nan nan nan nan nan nan nan nan nan nan nan nan nan nan nan nan nan nan nan nan nan nan nan nan nan nan nan nan nan nan nan nan nan nan nan nan nan
nan nan 50 49 nan 46 46 47 48 nan nan nan nan nan nan nan nan nan 51 49 47 44 nan nan nan nan nan nan nan nan nan nan nan nan nan nan nan nan nan nan nan nan nan nan nan nan nan nan nan nan nan nan nan nan nan nan nan nan nan nan nan nan nan nan nan nan nan nan nan nan nan nan nan nan nan nan nan nan nan nan nan nan nan nan nan
nan nan 52 49 47 46 47 nan nan 49 nan nan nan nan nan nan nan nan nan nan nan nan nan nan nan nan nan nan nan nan nan nan nan nan nan nan nan nan nan nan nan nan nan nan nan nan nan nan nan nan nan nan nan nan nan nan nan nan nan nan nan nan nan nan nan nan nan nan nan nan nan nan nan nan nan nan nan nan nan nan nan nan nan nan nan
51 51 50 48 48 nan nan nan nan nan nan nan nan nan nan nan nan nan nan nan nan nan nan nan nan nan nan nan nan nan nan nan nan nan nan nan nan nan nan nan nan nan nan nan nan nan nan nan nan nan nan nan nan nan nan nan nan nan nan nan nan nan nan nan nan nan nan nan nan nan nan nan nan nan nan nan nan nan nan nan nan nan nan nan nan
52 nan nan nan nan nan nan nan nan nan nan nan nan nan nan nan nan nan nan nan nan nan nan nan nan nan nan nan nan nan nan nan nan nan nan nan nan nan nan nan nan nan nan nan nan nan nan nan nan nan nan nan nan nan nan nan nan nan nan nan nan nan nan nan nan nan nan nan nan nan nan nan nan nan nan nan nan nan nan nan nan nan nan nan nan
nan nan nan nan nan nan nan nan nan nan nan nan nan nan nan nan nan nan nan nan nan nan nan nan nan nan nan nan nan nan nan nan nan nan nan nan nan nan nan nan nan nan nan nan nan nan nan nan nan nan nan nan nan nan nan nan nan nan nan nan nan nan nan nan nan nan nan nan nan nan nan nan nan nan nan nan nan nan nan nan nan nan nan nan nan
nan nan nan nan nan nan nan nan nan nan nan nan nan nan nan nan nan nan nan nan nan nan nan nan nan nan nan nan nan nan nan nan nan nan nan nan nan nan nan nan nan nan nan nan nan nan nan nan nan nan nan nan nan nan nan nan nan nan nan nan nan nan nan nan nan nan nan nan nan nan nan nan nan nan nan nan nan nan nan nan nan nan nan nan nan
nan nan nan nan nan nan nan nan nan nan nan nan nan nan nan nan nan nan nan nan nan nan nan nan nan nan nan nan nan nan nan nan nan nan nan nan nan nan nan nan nan nan nan nan nan nan nan nan nan nan nan nan nan nan nan nan nan nan nan nan nan nan nan nan nan nan nan nan nan nan nan nan nan nan nan nan nan nan nan nan nan nan nan nan nan
nan nan nan nan nan nan nan nan nan nan nan nan nan nan nan nan nan nan nan nan nan nan nan nan nan nan nan nan nan nan nan nan nan nan nan nan nan nan nan nan nan nan nan nan nan nan nan nan nan nan nan nan nan nan nan nan nan nan nan nan nan nan nan nan nan nan nan nan nan nan nan nan nan nan nan nan nan nan nan nan nan nan nan nan nan
nan nan nan nan nan nan nan nan nan nan nan nan nan nan nan nan nan nan nan nan nan nan nan nan nan nan nan nan nan nan nan nan nan nan nan nan nan nan nan nan nan nan nan nan nan nan nan nan nan nan nan nan nan nan nan nan nan nan nan nan nan nan nan nan nan nan nan nan nan nan nan nan nan nan nan nan nan nan nan nan nan nan nan nan nan
nan nan nan nan nan nan nan nan nan nan nan nan nan nan nan nan nan nan nan nan nan nan nan nan nan nan nan nan nan nan nan nan nan nan nan nan nan nan nan nan nan nan nan nan nan nan nan nan nan nan nan nan nan nan nan nan nan nan nan nan nan nan nan nan nan nan nan nan nan nan nan nan nan nan nan nan nan nan nan nan nan nan nan nan nan
nan nan nan nan nan nan nan nan nan nan nan nan nan nan nan nan nan nan nan nan nan nan nan nan nan nan nan nan nan nan nan nan nan nan nan nan nan nan nan nan nan nan nan nan nan nan nan nan nan nan nan nan nan nan nan nan nan nan nan nan nan nan nan nan nan nan nan nan nan nan nan nan nan nan nan nan nan nan nan nan nan nan nan nan nan
Wind_Direction
310 309 306 307 307 nan 306 305 309 nan nan nan nan nan nan nan nan nan nan nan nan nan nan nan nan nan nan nan nan nan nan nan nan nan nan nan nan nan nan nan 323 326 325 326 325 325 325 325 326 326 324 nan nan nan nan nan nan nan nan nan nan nan nan nan nan nan nan nan nan nan nan nan nan nan nan nan nan nan nan nan nan nan nan nan nan
308 304 303 304 306 304 305 307 307 303 305 nan nan nan nan nan nan nan nan nan nan nan nan nan nan nan nan nan nan nan nan nan nan nan nan nan nan nan nan 322 322 324 323 325 325 324 324 324 325 326 324 nan nan nan nan nan nan nan nan nan nan nan nan nan nan nan nan nan nan nan nan nan nan nan nan nan nan nan nan nan nan nan nan nan nan
299 296 298 301 303 301 304 307 303 304 305 nan nan nan nan nan nan nan nan nan nan nan nan nan nan nan nan nan nan nan nan nan nan nan nan nan nan nan nan nan 322 323 324 326 326 324 324 324 326 325 nan nan nan 324 322 nan nan nan nan nan nan nan nan nan nan nan nan nan nan nan nan nan nan nan nan nan nan nan nan nan nan nan nan nan nan
294 297 304 305 299 297 303 303 302 303 304 302 nan nan nan nan nan nan nan nan nan nan nan nan nan nan nan nan nan nan nan nan nan nan nan nan nan nan nan nan nan nan 324 324 324 324 325 324 325 nan nan nan 321 321 321 322 nan nan nan nan nan nan nan nan nan nan nan nan nan nan nan nan nan nan nan nan nan nan nan nan nan nan nan nan nan
305 302 300 300 298 299 301 300 302 302 303 300 nan nan nan nan nan nan nan nan nan nan nan nan nan nan nan nan nan nan nan nan nan nan nan nan nan nan nan nan 319 320 322 323 323 323 323 nan nan nan nan nan 318 318 319 nan nan nan nan nan nan nan nan nan nan nan nan nan nan nan nan nan nan nan nan nan nan nan nan nan nan nan nan nan nan
305 299 296 301 301 300 299 300 302 302 301 298 nan nan nan nan nan nan nan nan nan nan nan nan nan nan nan nan nan nan nan nan nan nan nan nan nan nan nan 316 317 317 318 320 321 322 nan nan nan nan nan nan nan nan 316 nan nan nan nan nan nan nan nan nan nan nan nan nan nan nan nan nan nan nan nan nan nan nan nan nan nan nan nan nan nan
304 301 303 304 302 301 300 302 300 299 299 297 294 nan nan nan nan nan nan nan nan nan nan nan nan nan nan nan nan nan nan nan nan nan nan nan nan nan nan 314 315 316 316 318 319 321 nan nan nan nan nan nan nan nan nan nan nan nan nan nan nan nan nan nan nan nan nan 307 nan nan nan nan nan nan nan nan nan nan nan nan nan nan nan nan nan
308 306 306 305 302 302 301 300 297 295 293 292 nan nan nan nan nan nan nan nan nan nan nan nan nan nan nan nan nan nan nan nan nan nan nan nan nan nan nan 315 316 316 315 315 318 321 nan nan nan nan nan nan nan nan nan nan nan nan nan nan nan nan nan nan nan nan 308 307 nan nan nan nan nan nan nan nan nan nan nan nan nan nan nan nan nan
309 307 305 304 301 297 293 291 289 288 289 290 nan nan nan nan nan nan nan nan nan nan nan nan nan nan nan nan nan nan nan nan nan nan nan nan nan nan nan 318 316 315 313 314 317 320 nan nan nan nan nan nan nan nan nan nan nan nan 311 nan 308 310 310 308 307 306 307 nan nan nan nan nan nan nan nan nan nan nan nan nan nan nan nan nan nan
309 308 308 304 298 292 287 284 285 286 287 289 291 294 294 299 nan nan nan nan nan nan nan nan nan nan nan nan nan nan nan nan nan nan nan nan nan nan nan 319 315 313 313 314 316 319 322 320 nan nan nan nan nan nan nan nan 321 317 313 309 310 310 310 309 307 305 306 308 nan nan nan nan nan nan nan nan nan nan nan nan nan nan nan nan nan
308 307 306 300 289 282 281 281 281 285 288 290 289 294 301 nan 299 nan nan nan nan nan nan nan nan nan nan nan nan nan nan nan nan nan nan nan nan nan nan 325 317 312 311 314 318 321 321 317 nan nan nan 312 310 314 317 319 318 319 319 318 315 313 309 309 306 304 305 307 305 nan nan nan nan nan nan nan nan nan nan nan nan nan nan nan nan
307 305 299 289 283 285 280 278 279 282 283 288 296 303 298 299 301 302 nan nan nan nan nan nan nan nan nan nan nan nan nan nan nan nan nan nan nan 333 328 323 318 313 311 315 320 322 323 317 312 nan nan nan nan nan 309 313 314 314 315 315 317 319 318 313 308 304 304 304 nan nan nan nan nan nan nan nan nan nan nan nan nan nan nan nan nan
305 298 287 280 280 279 276 278 284 289 289 291 295 297 299 300 302 303 nan nan nan nan nan nan nan nan nan nan 315 322 nan nan nan nan nan nan nan nan 324 318 316 315 311 314 319 324 324 321 314 nan nan 307 306 305 306 306 308 311 nan nan nan 315 315 317 316 313 307 309 311 nan nan nan nan nan nan nan nan nan nan nan nan nan nan nan nan
289 277 267 263 262 265 276 286 283 287 293 295 294 297 298 304 304 304 nan nan nan nan nan nan nan nan nan nan 312 318 325 nan nan nan nan nan nan nan nan nan 313 314 310 308 315 324 327 324 nan nan nan 300 301 303 303 304 304 304 nan 306 307 308 309 312 316 321 320 314 nan nan nan nan nan nan nan nan nan nan nan nan nan nan nan nan nan
289 289 278 273 277 277 281 287 300 301 294 293 295 299 302 302 301 303 nan nan nan nan nan nan nan nan 308 310 312 319 326 335 338 nan nan nan nan nan nan nan nan nan nan nan 309 319 323 322 nan nan 304 300 301 303 302 302 301 303 nan 305 306 305 303 303 nan nan nan nan nan nan nan nan nan nan nan nan nan nan nan nan nan nan nan nan nan
296 291 288 285 279 274 277 291 300 294 291 291 297 301 301 302 304 300 299 300 nan nan nan nan nan 310 313 314 315 320 325 333 336 nan nan nan nan nan nan nan nan nan nan nan nan 310 317 318 315 312 306 300 301 305 303 299 299 nan 306 304 301 nan nan nan nan nan nan nan nan nan nan nan nan nan nan nan nan nan nan nan nan nan nan nan nan
287 280 277 277 274 272 277 288 286 285 286 290 297 300 300 301 298 295 299 300 302 305 308 nan nan nan 318 316 316 320 324 330 331 nan nan nan nan nan nan nan nan nan nan nan nan nan nan 313 311 308 303 299 300 300 295 nan nan nan 303 301 nan nan nan nan nan nan nan nan nan nan nan nan nan nan nan nan nan nan nan nan nan nan nan nan nan
293 292 286 282 275 271 278 284 283 282 286 297 303 302 298 291 293 294 299 299 303 307 nan nan nan nan 317 317 317 320 323 324 325 325 328 331 nan nan nan nan nan nan nan nan nan 303 308 313 309 306 301 296 nan nan nan nan nan nan nan nan nan nan nan nan nan nan nan nan nan nan nan nan nan nan nan nan nan nan nan nan nan nan nan nan nan
307 295 286 283 276 273 275 279 281 286 297 307 306 300 296 294 288 290 296 299 302 302 305 nan nan nan 315 317 318 318 318 318 321 324 326 328 326 322 nan nan nan nan nan nan 305 306 nan nan 306 nan nan nan nan nan nan nan nan nan nan nan nan nan nan nan nan nan nan nan nan nan nan nan nan nan nan nan nan nan nan nan nan nan nan nan nan
310 302 283 269 268 272 278 285 285 289 303 307 300 297 289 284 288 293 295 299 303 306 307 311 313 314 314 314 314 314 315 316 316 321 324 325 326 322 317 nan nan nan nan nan nan nan 307 304 301 nan nan nan nan nan nan nan nan nan nan nan nan nan nan nan nan nan nan nan nan nan nan nan nan nan nan nan nan nan nan nan nan nan nan nan nan
306 302 288 273 262 274 289 295 293 292 300 302 298 292 288 286 286 291 296 298 301 305 308 310 312 313 313 313 313 313 314 316 317 322 nan 324 322 321 317 318 319 320 nan 315 nan 311 310 307 nan nan nan nan nan nan nan nan nan nan nan nan nan nan nan nan nan nan nan nan nan nan nan nan nan nan nan nan nan nan nan nan nan nan nan nan nan
302 300 294 274 262 268 280 277 276 292 300 303 302 298 289 286 288 293 296 298 302 306 307 308 310 311 310 311 313 314 315 318 316 320 nan nan nan nan nan 320 322 nan nan nan 307 311 312 nan nan nan nan nan nan nan nan nan nan nan nan nan nan nan nan nan nan nan nan nan nan nan nan nan nan nan nan nan nan nan nan nan nan nan nan nan nan
296 299 295 278 265 260 253 258 289 302 311 316 312 304 294 289 289 291 294 297 301 304 307 306 306 307 307 309 311 313 313 313 316 316 nan nan nan nan nan 323 325 nan nan nan 310 312 308 nan nan nan nan nan nan nan nan nan nan nan nan nan nan nan nan nan nan nan nan nan nan nan nan nan nan nan nan nan nan nan nan nan nan nan nan nan nan
300 307 299 nan 265 262 255 274 302 308 313 317 315 306 299 294 290 292 293 296 300 303 306 304 303 305 309 310 309 311 311 312 315 316 nan nan nan nan nan 325 nan nan nan nan 305 306 306 nan nan nan nan nan nan nan nan nan nan nan 310 nan nan nan nan nan nan nan nan nan nan nan nan nan nan nan nan nan nan nan nan nan nan nan nan nan nan
303 309 297 268 259 259 259 273 293 304 311 313 310 304 297 292 289 289 291 293 298 304 307 306 307 308 309 311 310 311 311 311 312 315 nan nan nan nan nan nan nan 302 298 302 304 306 nan nan nan nan nan nan nan nan nan nan 306 301 299 nan nan nan nan nan nan nan nan nan nan nan nan nan nan nan nan nan nan nan nan nan nan nan nan nan nan
307 311 293 265 258 272 284 282 286 295 302 304 302 300 299 294 289 288 290 294 300 305 306 306 308 308 308 308 308 309 308 310 313 313 nan nan nan nan 311 nan nan nan 310 307 307 304 302 nan nan nan nan nan nan nan 294 294 297 296 nan nan nan nan nan nan nan nan nan nan nan nan nan nan nan nan nan nan nan nan nan nan nan nan nan nan nan
309 313 301 274 267 284 295 290 283 284 291 294 295 294 292 286 284 287 293 299 303 305 306 306 305 304 305 306 307 308 309 310 312 311 311 311 308 309 310 nan 311 nan nan 304 301 301 nan nan nan nan nan 286 285 285 287 290 291 288 nan nan nan nan nan nan nan nan nan nan nan nan nan nan nan nan nan nan nan nan nan nan nan nan nan nan nan
304 305 297 282 277 282 285 284 283 287 293 294 294 289 284 283 291 298 301 303 305 305 304 303 304 305 306 306 307 308 309 310 309 310 310 309 307 309 309 306 nan nan nan nan 306 306 nan nan nan 291 290 288 287 288 288 286 nan nan nan nan nan nan nan nan nan nan nan nan nan nan nan nan nan nan nan nan nan nan nan nan nan nan nan nan nan
290 289 289 286 283 281 283 285 287 293 292 284 278 279 284 289 292 294 292 293 295 299 301 302 303 304 306 307 308 307 307 308 310 310 309 310 310 308 305 307 307 306 305 307 306 304 nan nan nan nan nan nan nan nan 289 nan nan nan nan nan nan nan nan nan nan nan nan nan nan nan nan nan nan nan nan nan nan nan nan nan nan nan nan nan nan
292 296 290 281 278 277 277 279 285 290 290 290 288 287 284 287 289 291 292 289 289 291 297 303 301 302 306 307 305 309 308 306 304 305 303 301 300 299 300 299 300 303 307 308 307 nan nan nan nan nan nan nan nan nan nan nan nan nan nan nan nan nan nan nan nan nan nan nan nan nan nan nan nan nan nan nan nan nan nan nan nan nan nan nan nan
292 288 281 277 278 276 277 283 289 287 287 288 290 292 292 288 284 287 290 292 293 294 298 302 303 nan nan nan nan nan nan nan nan 296 295 296 297 299 299 299 301 302 305 nan nan nan nan nan nan nan nan nan nan nan nan nan nan nan nan nan nan nan nan nan nan nan nan nan nan nan nan nan nan nan nan nan nan nan nan nan nan nan nan nan nan
289 287 285 283 280 279 284 289 290 289 290 293 295 295 295 295 294 294 295 294 293 295 nan nan nan nan nan nan nan nan nan nan nan nan nan nan nan nan 303 303 303 nan nan nan nan nan nan nan nan nan nan nan nan nan nan nan nan nan nan nan nan nan nan nan nan nan nan nan nan nan nan nan nan nan nan nan nan nan nan nan nan nan nan nan nan
293 290 288 284 284 286 288 291 292 292 294 296 296 296 298 300 301 299 296 297 298 296 nan nan nan nan nan nan nan nan nan nan nan nan nan nan nan nan nan nan nan nan nan nan nan nan nan nan nan nan nan nan nan nan nan nan nan nan nan nan nan nan nan nan nan nan nan nan nan nan nan nan nan nan nan nan nan nan nan nan nan nan nan nan nan
nan nan 288 286 285 287 290 292 293 295 296 298 299 300 300 300 299 298 298 297 297 nan nan nan nan nan nan nan nan nan nan nan nan nan nan nan nan nan nan nan nan nan nan nan nan nan nan nan nan nan nan nan nan nan nan nan nan nan nan nan nan nan nan nan nan nan nan nan nan nan nan nan nan nan nan nan nan nan nan nan nan nan nan nan nan
nan 290 291 288 290 292 294 294 295 297 299 301 300 300 300 297 297 298 301 302 nan nan nan nan nan nan nan nan nan nan nan nan nan nan nan nan nan nan nan nan nan nan nan nan nan nan nan nan nan nan nan nan nan nan nan nan nan nan nan nan nan nan nan nan nan nan nan nan nan nan nan nan nan nan nan nan nan nan nan nan nan nan nan nan nan
288 286 286 289 289 291 292 293 295 298 300 301 300 299 299 299 299 300 299 298 nan nan nan nan nan nan nan nan nan nan nan nan nan nan nan nan nan nan nan nan nan nan nan nan nan nan nan nan nan nan nan nan nan nan nan nan nan nan nan nan nan nan nan nan nan nan nan nan nan nan nan nan nan nan nan nan nan nan nan nan nan nan nan nan nan
286 286 286 286 288 288 290 293 295 297 295 295 298 300 300 299 299 299 300 299 297 298 298 nan nan nan nan nan nan nan nan nan nan nan nan nan nan nan nan nan nan nan nan nan nan nan nan nan nan nan nan nan nan nan nan nan nan nan nan nan nan nan nan nan nan nan nan nan nan nan nan nan nan nan nan nan nan nan nan nan nan nan nan nan nan
283 284 nan 284 285 288 289 290 291 289 287 290 296 299 300 301 302 302 300 300 nan nan nan nan nan nan nan nan nan nan nan nan nan nan nan nan nan nan nan nan nan nan nan nan nan nan nan nan nan nan nan nan nan nan nan nan nan nan nan nan nan nan nan nan nan nan nan nan nan nan nan nan nan nan nan nan nan nan nan nan nan nan nan nan nan
281 284 288 290 289 288 288 287 285 284 285 289 295 298 299 300 301 300 298 297 nan nan nan nan nan nan nan nan nan nan nan nan nan nan nan nan nan nan nan nan nan nan nan nan nan nan nan nan nan nan nan nan nan nan nan nan nan nan nan nan nan nan nan nan nan nan nan nan nan nan nan nan nan nan nan nan nan nan nan nan nan nan nan nan nan
284 285 288 291 288 286 nan 282 282 284 287 290 292 294 295 297 nan nan 294 294 295 296 296 nan nan nan nan nan nan nan nan nan nan nan nan nan nan nan nan nan nan nan nan nan nan nan nan nan nan nan nan nan nan nan nan nan nan nan nan nan nan nan nan nan nan nan nan nan nan nan nan nan nan nan nan nan nan nan nan nan nan nan nan nan nan
nan nan 287 287 nan 285 282 281 283 nan nan nan nan nan nan nan nan nan 292 292 293 294 nan nan nan nan nan nan nan nan nan nan nan nan nan nan nan nan nan nan nan nan nan nan nan nan nan nan nan nan nan nan nan nan nan nan nan nan nan nan nan nan nan nan nan nan nan nan nan nan nan nan nan nan nan nan nan nan nan nan nan nan nan nan nan
nan nan 285 286 286 286 286 nan nan 289 nan nan nan nan nan nan nan nan nan nan nan nan nan nan nan nan nan nan nan nan nan nan nan nan nan nan nan nan nan nan nan nan nan nan nan nan nan nan nan nan nan nan nan nan nan nan nan nan nan nan nan nan nan nan nan nan nan nan nan nan nan nan nan nan nan nan nan nan nan nan nan nan nan nan nan
284 286 287 287 288 nan nan nan nan nan nan nan nan nan nan nan nan nan nan nan nan nan nan nan nan nan nan nan nan nan nan nan nan nan nan nan nan nan nan nan nan nan nan nan nan nan nan nan nan nan nan nan nan nan nan nan nan nan nan nan nan nan nan nan nan nan nan nan nan nan nan nan nan nan nan nan nan nan nan nan nan nan nan nan nan
285 nan nan nan nan nan nan nan nan nan nan nan nan nan nan nan nan nan nan nan nan nan nan nan nan nan nan nan nan nan nan nan nan nan nan nan nan nan nan nan nan nan nan nan nan nan nan nan nan nan nan nan nan nan nan nan nan nan nan nan nan nan nan nan nan nan nan nan nan nan nan nan nan nan nan nan nan nan nan nan nan nan nan nan nan
nan nan nan nan nan nan nan nan nan nan nan nan nan nan nan nan nan nan nan nan nan nan nan nan nan nan nan nan nan nan nan nan nan nan nan nan nan nan nan nan nan nan nan nan nan nan nan nan nan nan nan nan nan nan nan nan nan nan nan nan nan nan nan nan nan nan nan nan nan nan nan nan nan nan nan nan nan nan nan nan nan nan nan nan nan
nan nan nan nan nan nan nan nan nan nan nan nan nan nan nan nan nan nan nan nan nan nan nan nan nan nan nan nan nan nan nan nan nan nan nan nan nan nan nan nan nan nan nan nan nan nan nan nan nan nan nan nan nan nan nan nan nan nan nan nan nan nan nan nan nan nan nan nan nan nan nan nan nan nan nan nan nan nan nan nan nan nan nan nan nan
nan nan nan nan nan nan nan nan nan nan nan nan nan nan nan nan nan nan nan nan nan nan nan nan nan nan nan nan nan nan nan nan nan nan nan nan nan nan nan nan nan nan nan nan nan nan nan nan nan nan nan nan nan nan nan nan nan nan nan nan nan nan nan nan nan nan nan nan nan nan nan nan nan nan nan nan nan nan nan nan nan nan nan nan nan
nan nan nan nan nan nan nan nan nan nan nan nan nan nan nan nan nan nan nan nan nan nan nan nan nan nan nan nan nan nan nan nan nan nan nan nan nan nan nan nan nan nan nan nan nan nan nan nan nan nan nan nan nan nan nan nan nan nan nan nan nan nan nan nan nan nan nan nan nan nan nan nan nan nan nan nan nan nan nan nan nan nan nan nan nan
nan nan nan nan nan nan nan nan nan nan nan nan nan nan nan nan nan nan nan nan nan nan nan nan nan nan nan nan nan nan nan nan nan nan nan nan nan nan nan nan nan nan nan nan nan nan nan nan nan nan nan nan nan nan nan nan nan nan nan nan nan nan nan nan nan nan nan nan nan nan nan nan nan nan nan nan nan nan nan nan nan nan nan nan nan
nan nan nan nan nan nan nan nan nan nan nan nan nan nan nan nan nan nan nan nan nan nan nan nan nan nan nan nan nan nan nan nan nan nan nan nan nan nan nan nan nan nan nan nan nan nan nan nan nan nan nan nan nan nan nan nan nan nan nan nan nan nan nan nan nan nan nan nan nan nan nan nan nan nan nan nan nan nan nan nan nan nan nan nan nan
nan nan nan nan nan nan nan nan nan nan nan nan nan nan nan nan nan nan nan nan nan nan nan nan nan nan nan nan nan nan nan nan nan nan nan nan nan nan nan nan nan nan nan nan nan nan nan nan nan nan nan nan nan nan nan nan nan nan nan nan nan nan nan nan nan nan nan nan nan nan nan nan nan nan nan nan nan nan nan nan nan nan nan nan nan